SCP
0 0 0 0 0 0 0 1 2 3 3 4 4 5 4 4 4 3 3 2 1 1 0 0 0 0 0 0 0 0 0 0 0 0 0 0 0 0 0 0 0 0 0
0 0 0 0 0 0 0 0 1 2 3 4 4 4 4 4 4 4 4 3 2 1 1 0 0 0 0 0 0 0 0 0 0 0 0 0 0 0 0 0 0 0 0
0 0 0 0 0 0 0 0 0 1 2 3 4 4 4 5 5 5 5 4 3 2 1 1 0 0 0 0 0 0 0 0 0 0 0 0 0 0 0 0 0 0 0
0 0 0 0 0 0 0 0 0 0 2 3 3 4 4 4 5 6 6 6 5 4 2 1 0 0 0 0 0 0 0 0 0 0 0 0 0 0 0 0 0 0 0
0 0 0 0 0 0 0 0 0 0 1 2 3 3 3 3 4 5 6 6 6 5 3 2 1 0 0 0 0 0 0 0 0 0 0 0 0 0 0 0 0 0 0
0 0 0 0 0 0 0 0 0 0 0 1 2 2 3 3 3 3 4 6 6 5 4 2 1 0 0 0 0 0 0 0 0 0 0 0 0 0 0 0 0 0 0
0 0 0 0 0 0 0 0 0 0 0 0 1 1 2 2 2 2 3 4 5 5 4 3 1 0 0 0 0 0 0 0 0 0 0 0 0 0 0 0 0 0 0
0 0 0 0 0 0 0 0 0 0 0 0 0 1 1 2 2 2 2 3 4 4 4 3 1 0 0 0 0 0 0 0 0 0 0 0 0 0 0 0 0 0 0
0 0 0 0 0 0 0 0 0 0 0 0 0 0 1 1 1 1 1 2 2 2 2 1 1 0 0 0 0 0 0 0 0 0 0 0 0 0 0 0 0 0 0
0 0 0 0 0 0 0 0 0 0 0 0 0 0 0 1 1 1 0 1 1 0 0 0 0 0 0 0 0 0 0 0 0 0 0 0 0 0 0 0 0 0 0
0 0 0 0 0 0 0 0 0 0 0 0 0 0 0 0 0 0 0 0 0 0 0 0 0 0 0 0 0 0 0 0 0 0 0 0 0 0 0 0 0 0 0
0 0 0 0 0 0 0 0 0 0 0 0 0 0 0 0 0 0 0 0 0 0 0 0 0 0 0 0 0 0 0 0 0 0 0 0 0 0 0 0 0 0 0
0 0 0 0 0 0 0 0 0 0 0 0 0 0 0 0 0 0 0 0 0 0 0 0 0 0 0 0 0 0 0 0 0 0 0 0 0 0 0 0 0 0 0
0 0 0 0 0 0 0 0 0 0 0 0 0 0 0 0 0 0 0 0 0 0 0 0 0 0 0 0 0 0 0 0 0 0 0 0 0 0 0 0 0 0 0
0 0 0 0 0 0 0 0 0 0 0 0 0 0 0 0 0 0 0 0 0 0 0 0 0 0 0 0 0 0 0 0 0 0 0 0 0 0 0 0 0 0 0
0 0 0 0 0 0 0 0 0 0 0 0 0 0 0 0 0 0 0 0 0 0 0 0 0 0 0 0 0 0 0 0 0 0 0 0 0 0 0 0 0 0 0
0 0 0 0 0 0 0 0 0 0 0 0 0 0 0 0 0 0 0 0 0 0 0 0 0 0 0 0 0 0 0 0 0 0 0 0 0 0 0 0 0 0 0
0 0 0 0 0 0 0 0 0 0 0 0 0 0 0 0 0 0 0 0 0 0 0 0 0 0 0 0 0 0 0 0 0 0 0 0 0 0 0 0 0 0 0
0 0 0 0 0 0 0 0 0 0 0 0 0 0 0 0 0 0 0 0 0 0 0 0 0 0 0 0 0 0 0 0 0 0 0 0 0 0 0 0 0 0 0
0 0 0 0 0 0 0 0 0 0 0 0 0 0 0 0 0 0 0 0 0 0 0 0 0 0 0 0 0 0 0 0 0 0 0 0 0 0 0 0 0 0 0
0 0 0 0 0 0 0 0 0 0 0 0 0 0 0 0 0 0 0 0 0 0 0 0 0 0 0 0 0 0 0 0 0 0 0 0 0 0 0 0 0 0 0
0 0 0 0 0 0 0 0 0 0 0 0 0 0 0 0 0 0 0 0 0 0 0 0 0 0 0 0 0 0 0 0 0 0 0 0 0 0 0 0 0 0 0
0 0 0 0 0 0 0 0 0 0 0 0 0 0 0 0 0 0 0 0 0 0 0 0 0 0 0 0 0 0 0 0 0 0 0 0 0 0 0 0 0 0 0
0 0 0 0 0 0 0 0 0 0 0 0 0 0 0 0 0 0 0 0 0 0 0 0 0 0 0 0 0 0 0 0 0 0 0 0 0 0 0 0 0 0 0
0 0 0 0 0 0 0 0 0 0 0 0 0 0 0 0 0 0 0 0 0 0 0 0 0 0 0 0 0 0 0 0 0 0 0 0 0 0 0 0 0 0 0
0 0 0 0 0 0 0 0 0 0 0 0 0 0 0 0 0 0 0 0 0 0 0 0 0 0 0 0 0 0 0 0 0 0 0 0 0 0 0 0 0 0 0
Wind_Speed
8 6 6 6 5 6 7 8 9 11 9 8 10 11 12 11 10 11 12 12 11 12 11 8 9 9 8 9 8 5 4 3 3 4 2 1 1 1 1 1 2 2 2
7 5 5 5 5 5 6 7 8 9 9 9 9 8 9 8 10 8 9 11 12 13 12 12 10 10 8 9 9 6 5 3 3 4 3 1 1 1 1 1 2 2 2
7 6 4 4 4 5 5 6 7 8 9 9 6 4 4 3 5 7 9 12 13 13 13 13 12 12 11 11 12 10 9 6 3 2 4 5 5 2 0 0 1 2 2
4 4 4 4 4 5 4 5 6 6 7 7 7 9 10 10 11 10 10 11 13 14 14 13 13 13 11 11 12 10 6 7 5 2 1 1 3 4 2 1 0 1 2
4 4 4 4 4 4 3 3 4 5 5 6 8 10 11 10 7 7 8 10 10 11 12 12 12 12 10 10 10 9 8 5 6 5 4 3 2 2 3 3 2 1 1
6 6 6 6 6 5 5 4 4 5 4 5 7 10 12 11 8 8 10 9 7 8 10 10 10 10 9 10 10 9 9 6 6 5 4 4 4 4 3 3 2 2 1
7 8 10 10 9 9 8 6 6 6 5 5 6 8 11 11 12 11 11 9 8 8 11 11 10 9 8 8 8 8 8 7 8 6 4 3 3 3 3 3 2 1 1
6 7 7 7 8 9 9 8 8 8 7 6 6 7 8 7 7 9 8 9 8 8 9 10 9 9 9 9 8 7 7 6 7 7 6 5 3 3 3 4 4 1 1
7 7 7 7 8 9 9 9 9 9 8 7 6 6 6 6 7 7 6 5 4 5 8 9 9 9 10 10 9 7 8 8 7 7 7 5 3 3 3 3 3 4 2
8 8 8 8 8 8 8 8 8 8 8 7 5 4 4 5 5 4 5 5 6 7 9 10 10 11 11 11 10 9 9 9 8 6 7 5 4 3 3 3 2 2 4
8 8 8 8 8 8 8 8 8 8 7 6 5 3 2 1 2 4 5 6 7 9 10 11 11 12 12 11 11 10 11 11 9 7 7 5 4 3 3 2 2 2 3
6 7 7 8 8 9 9 8 8 7 7 5 3 2 1 2 3 5 6 8 9 10 11 12 12 12 12 11 12 12 11 10 9 7 7 5 3 3 2 2 2 2 3
7 7 7 7 8 8 8 8 7 7 6 5 4 4 4 5 6 7 8 9 10 11 11 11 12 12 12 12 12 12 11 10 8 7 6 4 3 2 1 2 2 3 3
6 6 7 7 7 7 7 7 7 6 5 5 6 6 6 7 8 8 9 10 11 12 12 12 13 13 12 12 12 12 11 9 8 6 5 3 2 2 2 2 3 3 3
6 7 7 6 7 7 7 7 7 7 6 7 8 8 8 9 10 10 11 11 12 13 13 14 13 12 11 10 11 10 9 8 7 5 3 2 1 2 2 2 3 3 3
6 6 6 6 6 6 6 6 7 7 7 9 9 9 10 11 12 12 12 13 13 13 13 13 13 11 10 15 15 10 8 7 6 4 3 2 2 3 5 7 8 7 4
4 5 5 5 5 5 5 5 6 6 8 9 10 10 11 12 12 13 13 13 12 12 12 12 12 11 12 15 14 12 7 6 5 3 2 1 1 3 3 6 9 9 12
3 3 3 4 4 4 5 5 6 7 8 9 9 10 11 12 12 12 12 11 10 10 10 10 10 9 10 13 12 11 6 5 4 2 1 1 2 4 6 5 5 5 6
1 2 3 3 4 5 5 6 7 7 8 8 8 9 9 11 11 11 10 9 9 9 8 8 8 8 7 9 9 8 4 3 2 1 0 1 3 9 11 5 4 6 6
3 3 4 5 5 5 6 7 7 8 8 8 8 8 9 10 10 10 9 8 8 8 8 8 7 6 4 5 7 7 3 2 1 0 1 5 7 10 11 5 4 6 7
4 4 5 5 5 5 6 8 7 8 7 7 8 9 9 9 9 9 8 8 8 8 8 7 6 5 5 6 7 7 2 1 0 1 2 3 10 11 13 11 4 8 10
5 5 5 5 5 5 6 7 7 6 6 7 8 8 8 7 7 8 8 7 7 7 6 6 5 4 5 6 6 6 5 3 0 2 3 4 12 13 13 9 11 14 10
5 4 5 5 5 5 5 7 5 5 7 8 8 8 8 7 7 7 6 5 5 4 4 4 3 3 3 4 6 7 7 8 3 2 7 10 12 12 8 10 12 9 4
5 5 5 6 5 5 5 6 5 6 7 8 7 6 7 7 6 5 4 4 4 4 3 3 2 2 2 2 2 2 3 5 5 3 5 9 10 8 9 8 6 4 4
5 5 5 6 6 5 5 5 5 6 7 7 6 6 6 6 5 5 4 4 2 3 3 2 1 1 1 3 7 4 3 3 3 3 2 3 4 4 4 4 4 4 4
6 6 6 7 6 6 5 5 5 6 7 6 5 4 4 4 4 4 4 8 6 8 7 4 2 1 3 7 8 9 10 10 10 5 2 4 4 5 5 6 6 6 5
Wind_Direction
260 254 249 248 240 234 228 224 219 218 207 200 204 207 212 212 210 211 209 203 198 192 191 187 178 176 179 178 165 144 138 132 141 117 95 42 54 125 164 170 162 169 155
284 272 257 249 237 233 230 229 226 223 211 207 206 208 209 213 213 209 206 202 199 194 193 188 184 183 177 172 172 155 144 142 166 147 136 180 300 270 107 165 177 177 155
287 296 291 271 259 247 236 234 230 228 221 214 204 194 189 196 200 204 207 204 200 197 196 192 185 185 181 183 183 175 159 155 171 180 156 163 207 199 301 4 144 167 162
304 304 308 301 281 266 258 248 244 238 231 217 205 201 206 212 212 210 209 202 199 198 197 192 189 186 186 185 185 179 167 148 158 161 109 111 140 152 184 261 264 201 185
338 337 333 322 319 314 306 286 272 261 249 230 216 212 218 221 216 207 205 202 198 197 196 191 189 187 188 184 177 172 170 162 157 157 150 135 87 114 151 193 223 255 220
11 8 1 1 355 349 341 327 308 285 269 246 231 222 222 220 210 205 206 202 194 193 193 188 189 187 183 178 175 172 169 159 147 146 148 153 155 165 158 163 184 231 276
12 8 3 359 352 347 341 333 321 303 291 268 247 233 230 223 216 211 210 202 195 195 194 186 184 180 174 166 159 158 158 151 147 146 134 121 119 130 133 130 142 190 308
5 1 352 345 338 334 332 329 320 305 297 282 265 252 239 228 225 217 210 206 205 199 182 178 171 162 155 152 147 142 139 132 132 130 123 117 114 116 127 133 136 143 298
353 347 340 335 329 325 321 318 313 306 300 289 275 260 246 231 224 214 202 193 182 162 157 155 149 144 142 140 136 131 128 126 119 120 117 114 111 105 106 121 139 154 209
344 340 335 329 325 318 313 314 310 302 299 295 279 266 251 235 217 190 180 165 147 137 140 140 138 136 134 134 129 126 124 120 117 119 118 115 117 118 119 125 134 153 176
330 329 327 323 320 320 321 320 320 316 311 303 291 278 265 221 167 158 152 141 132 135 137 136 134 133 132 131 127 125 123 120 117 115 116 116 121 121 118 122 147 176 179
325 325 324 326 329 331 332 332 328 326 323 322 324 330 34 103 114 118 120 123 127 130 130 130 128 127 126 125 124 123 121 121 119 114 111 112 112 109 122 156 192 205 203
331 335 336 337 338 339 340 342 343 342 347 7 27 42 60 81 93 103 111 116 119 120 119 120 120 119 117 114 112 112 110 108 109 109 112 117 118 131 165 198 218 226 229
332 339 338 338 341 343 347 354 356 357 11 37 54 61 66 80 89 95 98 103 108 109 109 108 108 109 108 107 108 107 105 103 101 101 107 115 132 185 210 224 236 239 245
342 344 339 339 347 353 359 4 8 15 32 53 61 65 71 78 82 86 90 93 97 101 103 103 102 102 103 106 108 106 109 110 107 102 100 109 146 231 238 246 241 232 239
339 341 343 352 358 0 5 12 20 28 47 61 65 70 76 79 81 83 88 92 93 96 98 100 102 100 101 110 110 111 108 109 111 109 94 65 44 356 343 317 301 284 268
333 341 348 357 5 9 18 29 36 44 58 65 70 74 80 83 85 88 87 89 92 94 93 93 95 98 107 112 112 112 113 115 114 111 98 62 352 355 307 298 300 300 298
335 349 359 16 23 31 44 52 55 60 67 71 75 80 86 89 89 90 90 90 89 90 91 91 94 97 103 107 111 114 109 106 106 110 136 228 290 294 287 264 265 264 272
27 29 38 53 51 52 59 66 65 66 69 71 76 83 90 94 93 92 91 90 90 87 87 88 88 90 94 104 112 112 105 100 101 120 156 291 282 298 307 303 285 283 282
72 69 66 67 63 59 69 73 69 69 69 72 77 80 85 89 90 90 89 87 88 88 85 79 75 80 80 99 102 109 107 104 97 359 303 315 313 308 314 306 289 292 289
92 85 79 72 68 72 82 80 75 72 74 79 79 79 81 86 89 88 86 88 88 87 84 81 69 60 62 68 72 80 101 112 107 309 296 291 315 318 318 321 311 295 303
106 100 93 81 71 79 92 90 82 80 81 83 81 78 77 81 85 87 85 84 90 91 88 85 71 47 36 44 47 41 27 20 120 293 283 291 318 327 329 328 313 314 327
125 115 108 96 81 80 97 101 93 93 91 86 82 80 77 74 78 85 89 84 83 90 88 82 73 46 27 15 22 18 7 358 352 309 323 329 333 335 333 322 323 334 332
136 128 120 110 98 92 95 102 104 102 97 92 87 84 83 77 69 69 74 83 86 88 87 84 78 48 5 333 321 321 329 340 336 330 335 339 338 335 325 325 326 312 292
141 137 132 125 119 113 107 107 110 110 103 96 90 85 82 84 76 71 76 88 82 117 114 119 130 103 329 331 353 357 336 329 316 351 4 343 332 330 324 314 303 297 302
144 139 135 132 129 124 117 114 113 115 112 105 96 91 90 86 85 82 68 72 80 79 80 88 83 350 352 353 355 349 348 344 343 3 343 325 319 315 315 315 314 311 306